Tracking 25710 objects as of 5-Jul-2022
HD Live streaming from Space Station
objects crossing your sky now

FENGYUN 1C DEB

Track FENGYUN 1C DEB now!
10-day predictions


NORAD ID: 41828
Int'l Code: 1999-025EYF
Perigee: 798.4 km
Apogee: 893.4 km
Inclination: 98.9 °
Period: 101.7 minutes
Semi major axis: 7216 km
RCS: Unknown
Launch date: May 10, 1999
Source: People's Republic of China (PRC)
Launch site: Taiyaun Space Center, China (TSC)

Note: This is SATELLITE DEBRIS
aabbcc
Your satellite tracking list
Your tracking list is empty




NASA's NSSDC Master Catalog

Two Line Element Set (TLE):
1 41828U 99025EYF 22185.76368742  .00002295  00000-0  11606-2 0  9993
2 41828  98.9367 267.4884 0065841 220.5358 139.0902 14.16052816295098
Source of the keplerian elements: AFSPC